Location: Anton
(37.3520°N, 87.3947°W)
Time: 23:26:59
(UTC+00:00)

N. Korean satellite - Pass Details

Date: 04 December 2022
Orbit: 407 x 442 km, 97.3° (Epoch: 05 February)

Event Time Altitude Azimuth Distance (km) Brightness Sun altitude
Rises 23:16:03 0° 205° (SSW) 2,434 10.9 -8.9°
Reaches altitude 10° 23:18:44 10° 230° (SW) 1,582 10.5 -9.4°
Maximum altitude 23:20:45 15° 267° (W) 1,324 10.0 -9.7°
Drops below altitude 10° 23:22:47 10° 303° (WNW) 1,608 9.7 -10.1°
Sets 23:25:34 0° 328° (NNW) 2,500 10.3 -10.6°
